AirNav   Everest Fuels
 
 1061 users online  

64PA J C Blair Memorial Hospital Heliport
Huntingdon, Pennsylvania, USA

GOING TO HUNTINGDON?


FAA INFORMATION EFFECTIVE 18 JUNE 2020

Location

FAA Identifier: 64PA
Lat/Long: 40-29-39.3900N 078-00-32.9100W
40-29.656500N 078-00.548500W
40.4942750,-78.0091417
(estimated)
Elevation: 743.3 ft. / 227 m (estimated)
Variation: 09W (1985)
Time zone: UTC -4 (UTC -5 during Standard Time)
Zip code: 16652

Heliport Operations

Heliport use: Private use, MEDICAL
Activation date: 03/1990
Control tower: no
ARTCC: CLEVELAND CENTER
FSS: ALTOONA FLIGHT SERVICE STATION
Attendance: CONTINUOUS
Wind indicator: lighted
Segmented circle: no
Lights: SS-SR

Heliport Communications

WX ASOS at AOO (19 nm SW): 127.125 (814-793-9655)

Nearby radio navigation aids

VOR radial/distance  VOR name  Freq  Var
PSBr192/25.3PHILIPSBURG VORTAC115.5010W
THSr002/33.8ST THOMAS VORTAC115.0007W
RECr104/33.8REVLOC VOR/DME110.6009W
JSTr080/39.2JOHNSTOWN VOR/DME113.0006W

Heliport Services

Runway Information

Helipad H1

Dimensions: 80 x 80 ft. / 24 x 24 m
Surface: asphalt, in fair condition
Runway edge lights: PERI
Latitude: 40-29.656500N
Longitude: 078-00.548500W
Elevation: 743.3 ft.
Traffic pattern: leftleft
Markings: none, in fair condition

Heliport Ownership and Management from official FAA records

Ownership: Privately-owned
Owner: PENN HIGHLANDS HUNTINGDON
1225 WARM SPRINGS AVENUE
HUNTINGDON, PA 16652
Phone 814-643-2290
Manager: MICHAEL D. MCKIM
1225 WARM SPRINGS AVENUE
HUNTINGDON, PA 16652
Phone 814-643-8705

Additional Remarks

FOR CD CTC JOHNSTOWN APCH AT 814-532-5960, WHEN APCH CLSD CTC CLEVELAND ARTCC AT 440-774-0234.

Instrument Procedures

There are no published instrument procedures at 64PA.

Some nearby airports with instrument procedures:

KAOO - Altoona-Blair County Airport (19 nm SW)
KRVL - Mifflin County Airport (21 nm NE)
KUNV - University Park Airport (23 nm N)
KPSB - Mid-State Airport (24 nm N)
N96 - Bellefonte Airport (25 nm N)
 
Loc | Ops | Rwys | IFR | FBO | Links
Com | Nav | Svcs | Stats | Notes
Area around 64PA (J C Blair Memorial Hospital Heliport)
 
Road maps at: MapQuest Bing Google
 
Aerial photo
No photo
 
Sectional chart

 
Airport distance calculator
Flying to J C Blair Memorial Hospital Heliport? Find the distance to fly.

From to 64PA

Sunrise and sunset
Times for 12-Jul-2020
 Local
(UTC-4)
 Zulu
(UTC)
Morning civil twilight05:2109:21
Sunrise05:5409:54
Sunset20:4200:42
Evening civil twilight21:1401:14

Current date and time
Zulu (UTC)  12-Jul-2020 18:21:25
Local (UTC-4)  12-Jul-2020 14:21:25
 
METAR
KAOO 
18nm SW 
121753Z AUTO 18007KT 10SM SCT100 27/17 A2981 RMK AO2 SLP082 60000 T02670172 10267 20211 58012
KRVL 
21nm NE 
121755Z AUTO 26006KT 10SM FEW090 SCT110 27/19 A2976 RMK AO2
KUNV 
23nm N 
121753Z 21007KT 10SM SCT055 26/18 A2978
KHMZ 
34nm SW 
121755Z AUTO 13005KT 10SM BKN080 BKN090 BKN120 26/17 A2979 RMK AO2 T02560166 10266 20181
TAF
KAOO 
18nm SW 
121748Z 1218/1318 17004KT P6SM VCSH FEW070 OVC100 FM121900 26007KT P6SM VCTS SCT040CB BKN080 FM130000 VRB03KT P6SM BKN080 FM131100 30004KT P6SM SCT250
KUNV 
23nm N 
121748Z 1218/1318 22009KT P6SM SCT040 SCT080 BKN120 FM122200 26005KT P6SM VCSH SCT040 BKN080 FM130100 VRB03KT P6SM BKN080
NOTAMs
Click for the latest NOTAMs
NOTAMs are issued by the DoD/FAA and will open in a separate window not controlled by AirNav.

 

 
 

Would you like to see your business listed on this page?

 If your business provides an interesting product or service to pilots, flight crews, aircraft, or users of the J C Blair Memorial Hospital Heliport, you should consider listing it here.  To start the listing process, click on the button below
 
Add a business
 

Other Pages about J C Blair Memorial Hospital Heliport

Update a link
 
Copyright © AirNav, LLC. All rights reserved. Privacy Policy  Contact